CDT,Max TemperatureF,Mean TemperatureF,Min TemperatureF,Max Dew PointF,MeanDew PointF,Min DewpointF,Max Humidity, Mean Humidity, Min Humidity, Max Sea Level PressureIn, Mean Sea Level PressureIn, Min Sea Level PressureIn, Max VisibilityMiles, Mean VisibilityMiles, Min VisibilityMiles, Max Wind SpeedMPH, Mean Wind SpeedMPH, Max Gust SpeedMPH,PrecipitationIn, CloudCover, Events, WindDirDegrees
2012-10-1,79,68,57,54,51,48,87,62,35,29.89,29.84,29.80,10,10,10,15,6,22,0.00,0,,342
2012-10-2,77,62,46,48,45,41,90,60,29,29.97,29.93,29.89,10,10,10,10,6,,0.00,0,,343
2012-10-3,80,62,44,51,46,41,93,62,31,30.00,29.95,29.91,10,10,10,14,3,21,0.00,0,,181
2012-10-4,73,62,50,55,50,41,90,67,49,30.22,30.13,29.99,10,10,8,14,6,17,0.01,4,,339
2012-10-5,55,46,37,45,40,31,86,73,43,30.32,30.23,30.20,10,10,10,17,8,26,0.00,6,Rain,21
2012-10-6,50,44,39,38,32,24,89,63,44,30.37,30.33,30.28,10,10,10,12,4,,0.00,6,Rain,358
2012-10-7,57,44,32,34,29,25,89,60,30,30.37,30.30,30.20,10,10,10,7,2,,0.00,1,,264
2012-10-8,64,47,30,37,32,27,92,63,31,30.23,30.14,30.03,10,10,8,14,4,23,0.00,0,,186
2012-10-9,66,54,44,52,46,36,81,68,55,30.14,29.98,29.91,10,10,8,15,7,24,0.00,5,,185
2012-10-10,66,50,34,39,34,29,89,62,26,30.30,30.21,30.15,10,10,6,7,4,,0.00,0,,17
2012-10-11,75,65,55,63,50,35,81,57,44,30.15,30.09,30.00,10,10,10,13,4,18,0.00,7,,171
2012-10-12,69,64,59,63,59,55,94,87,77,30.22,30.14,30.08,10,8,4,12,4,21,0.06,7,Rain-Thunderstorm,78
2012-10-13,73,68,63,68,64,61,94,88,81,30.04,29.86,29.68,10,6,1,25,9,38,0.78,7,Rain-Thunderstorm,176
2012-10-14,75,62,48,63,52,43,94,72,33,30.06,29.86,29.63,10,10,10,16,8,23,0.00,1,,264
2012-10-15,84,63,44,51,47,42,93,63,27,30.05,29.96,29.86,10,10,9,9,2,17,0.00,0,,209
2012-10-16,81,68,55,52,50,48,77,54,32,29.85,29.70,29.56,10,10,10,17,8,25,0.00,0,,181
2012-10-17,71,60,50,62,52,33,88,68,29,29.76,29.55,29.43,10,10,8,21,8,31,0.02,5,Rain,247
2012-10-18,66,54,43,37,28,23,76,38,20,29.84,29.79,29.76,10,10,8,28,9,38,0.00,2,,285
2012-10-19,64,52,39,39,35,31,89,52,37,29.88,29.83,29.76,10,10,10,20,10,29,0.00,1,,301
2012-10-20,79,58,37,52,42,34,93,65,29,29.87,29.80,29.72,10,10,10,12,3,17,0.00,0,,168
2012-10-21,82,72,63,67,62,51,76,69,59,29.81,29.76,29.72,10,10,10,14,8,26,0.00,5,,163
2012-10-22,81,76,66,67,65,63,87,75,62,29.86,29.82,29.76,10,10,10,20,12,28,0.01,4,Rain,182
2012-10-23,81,74,69,66,66,64,87,76,64,29.88,29.81,29.75,10,10,10,22,11,30,0.00,6,,180
2012-10-24,84,74,66,66,63,58,84,68,52,29.86,29.80,29.72,10,10,10,20,12,31,0.00,0,,177
2012-10-25,71,57,42,63,47,32,90,74,64,30.28,29.97,29.68,10,10,9,20,13,30,0.03,5,Rain,334
2012-10-26,50,40,32,31,28,26,79,63,43,30.47,30.40,30.31,10,10,10,14,9,24,0.00,3,,10
2012-10-27,51,38,25,29,26,22,88,68,39,30.43,30.35,30.27,10,10,9,8,3,,0.00,0,,21
2012-10-28,55,40,24,31,27,21,92,67,34,30.37,30.31,30.26,10,10,10,6,1,,0.00,1,,60
2012-10-29,64,50,37,31,29,28,73,52,27,30.34,30.23,30.11,10,10,9,9,2,,0.00,2,,172
2012-10-30,69,52,34,39,34,30,85,57,32,30.10,30.01,29.93,10,10,10,8,2,,0.00,1,,108
2012-10-31,66,50,35,35,31,28,82,55,28,30.10,30.04,29.99,10,10,5,5,1,,0.00,0,,23